Find Galaxy 3C

NORAD ID: 27445 Int'l Des: 2002-030 Owner: PAN Country: US operational
HEOCIRCULARGSO

Live Position

Loading 3D Globe...

About Galaxy 3C

Description loading...

Upcoming Passes

Passes for default location (London). Set your location on the main map for personalized predictions.

Altitude History

Loading altitude history...

Two-Line Element Set

1 27445U 02030A 26106.16572380 -.00000143 00000-0 00000-0 0 9993
2 27445 3.5693 78.8100 0001490 28.4658 61.8463 1.00271095 45878
Epoch: Apr 16, 2026 • Age: 11 hours

Current Status

Altitude 35791.1 km
Velocity 3.07 km/s
Sub-Earth Point -3.43°S, 94.91°W
Launch Date Jun 15, 2002
Age 23.8 years
Type other

Technical Details

Classification Payload
Mass 4850.00 kg
Dry Mass 2000.00 kg
Total Mass 4850.00 kg
Length 7.00 m
Diameter 3.30 m
Span 47.80 m
Shape Box + 2 Pan
Manufacturer BOES
Bus Type BSS-702HP
Phase Status Renamed
Owner/State PAN/US

Most Searched